Wind_Speed
40 40 36 31 29 30 32 32 31 29 27 25 24 22 20 19 18 17 16 16 15 15 13 12 11 11 11 11 12 13 14 13 13 13 13 14 15 16 17 18 18 19 20 21 21 21 21 21 20 20 21 21 21 20 19 18 19 19 18 19 18 17 19 20 24 29 30 29 30 31 29 27 26 24 25 28 29 25 22 23 23 23 24 25 24
40 42 41 35 32 32 32 32 32 31 29 28 26 24 22 20 19 19 18 18 17 16 15 15 14 14 14 15 15 15 15 15 15 15 15 16 17 17 18 19 20 21 22 23 23 23 22 21 20 19 19 20 21 22 22 21 21 20 19 19 20 18 18 19 21 25 29 29 29 31 31 30 30 29 26 26 27 26 23 22 21 22 23 23 22
37 40 41 40 38 37 36 35 34 33 32 31 29 27 24 21 21 21 20 19 19 18 18 17 17 17 18 18 17 17 17 17 17 17 18 18 18 19 20 20 21 23 24 24 25 24 24 23 22 20 19 19 19 20 22 23 23 22 21 20 21 21 21 20 20 22 26 29 29 30 31 32 32 32 31 29 28 27 25 23 21 21 22 21 21
31 36 37 38 41 42 40 39 38 36 34 33 32 29 25 23 22 23 22 21 21 21 20 20 21 21 21 20 19 19 19 19 18 19 19 19 20 20 21 22 22 23 24 25 25 26 25 25 24 23 22 21 20 19 20 22 23 24 24 22 22 22 22 21 21 22 24 28 30 29 31 32 33 33 33 33 30 28 27 26 23 21 20 20 21
21 27 32 36 41 41 39 40 43 42 38 36 36 33 27 24 24 24 24 23 22 22 23 23 24 23 22 21 21 20 20 20 20 20 20 20 21 21 22 23 23 24 25 25 26 26 26 26 26 25 24 24 23 23 22 22 23 23 24 24 22 21 20 20 20 21 23 27 31 31 31 31 32 32 32 32 31 30 29 28 25 23 21 21 21
14 18 24 30 36 39 40 42 45 45 40 38 39 37 31 26 26 26 25 24 23 24 25 25 25 24 23 22 22 21 20 21 21 20 20 21 22 23 23 24 25 25 26 26 27 26 26 26 26 26 26 25 25 25 25 24 24 24 25 25 24 22 21 19 19 19 22 27 31 33 32 30 30 31 30 29 31 33 32 31 30 27 24 22 22
15 14 16 20 27 34 39 42 45 47 44 39 38 39 35 29 28 27 26 24 24 24 26 26 26 24 24 23 22 21 21 21 21 20 21 22 23 24 25 26 27 28 28 28 28 27 27 27 27 26 26 26 27 27 27 26 26 26 26 27 27 26 25 25 24 23 24 26 29 31 32 30 28 28 28 28 30 33 34 34 34 32 28 24 23
17 17 15 16 19 26 33 39 43 46 46 43 39 37 36 34 30 28 26 24 23 24 26 26 25 24 23 22 21 21 21 21 20 21 21 22 24 25 27 28 29 30 29 29 28 27 28 27 27 27 26 26 27 27 28 28 29 29 28 28 28 29 29 29 29 27 26 25 26 28 30 31 29 28 27 27 28 30 32 32 34 34 31 28 26
16 18 18 17 18 20 26 34 39 41 43 44 42 38 37 37 34 29 26 23 22 23 25 25 25 24 23 22 21 21 20 20 20 21 22 23 25 27 28 29 29 29 28 27 27 27 27 27 28 28 28 28 28 28 28 28 30 31 31 30 30 30 31 31 31 29 26 24 24 26 29 31 30 27 27 27 26 26 28 29 32 34 33 32 31
15 16 17 17 17 18 21 26 31 34 38 42 44 42 39 38 36 31 26 22 21 23 24 25 24 23 22 22 21 20 19 19 20 21 23 24 26 27 28 28 27 27 26 27 27 27 27 28 28 29 29 30 30 30 30 30 31 32 32 32 32 32 32 33 32 31 29 26 24 25 28 31 31 28 27 27 25 24 25 26 28 30 32 33 33
16 16 17 17 16 17 20 22 24 28 33 38 43 45 42 39 38 33 26 22 21 22 23 23 23 22 22 21 19 19 19 20 21 22 23 25 26 26 26 25 24 24 25 26 27 28 28 29 30 30 31 32 32 32 33 33 33 33 34 34 34 33 33 33 34 34 32 30 28 25 26 31 32 31 29 27 25 25 25 25 25 27 29 32 33
18 18 17 17 17 17 19 21 23 27 30 34 42 47 42 40 40 34 26 23 22 22 22 22 23 22 20 19 18 18 20 21 22 23 24 24 25 25 24 24 23 23 24 25 26 28 29 30 31 32 32 33 33 34 35 35 35 35 35 35 35 35 34 33 34 34 34 34 34 32 30 31 33 33 31 28 26 25 25 25 24 25 26 28 30
19 19 19 19 19 18 19 21 24 28 30 34 42 43 39 38 37 29 23 22 22 22 22 22 21 20 19 17 17 19 21 22 22 23 23 23 23 24 24 24 24 24 25 26 27 29 30 31 32 32 32 33 34 34 35 36 36 36 37 36 36 36 35 34 33 33 34 35 37 38 37 35 36 36 32 29 27 26 25 25 24 24 25 26 27
23 22 21 20 20 20 20 21 24 29 32 36 40 39 38 38 35 26 23 23 22 21 20 18 18 18 17 17 19 21 22 22 21 21 21 21 22 23 24 24 25 26 27 28 29 30 31 32 33 33 33 33 33 33 34 35 36 37 37 37 37 37 36 36 34 34 34 35 37 40 40 38 38 38 34 29 28 27 26 25 25 25 25 26 28
26 25 23 22 22 22 22 22 24 29 33 37 39 38 37 37 31 25 24 22 20 18 17 16 17 17 17 19 21 21 21 20 19 19 20 21 22 23 24 25 27 29 30 30 31 32 32 32 33 34 33 33 32 32 33 33 34 36 37 38 38 38 37 36 35 35 35 35 37 38 39 38 37 36 35 32 30 29 29 28 28 28 27 27 29
26 25 25 24 22 22 23 23 24 27 32 36 37 37 38 36 27 23 24 22 18 16 14 14 15 17 19 21 21 20 19 18 18 19 21 22 22 23 25 27 29 31 32 33 34 35 35 34 35 35 35 34 32 31 31 31 33 34 36 37 38 38 38 37 35 35 35 36 37 38 38 38 37 36 35 34 32 29 26 27 28 29 30 31 32
28 25 25 25 23 23 24 23 24 26 30 33 34 36 39 36 29 27 28 24 18 14 13 14 15 17 19 20 19 18 17 16 17 19 21 22 23 24 26 28 31 33 34 36 37 38 38 37 37 37 37 35 33 31 29 30 31 33 35 37 38 39 39 37 35 35 35 36 37 36 37 38 38 38 37 36 36 32 29 30 30 28 30 33 34
30 26 25 24 22 22 23 23 24 26 28 30 32 35 35 31 30 30 27 21 17 14 13 13 15 17 17 17 17 16 14 15 17 20 21 22 23 24 27 29 32 35 36 38 39 41 41 41 39 38 38 37 34 32 30 29 31 33 33 36 38 39 40 39 38 37 36 36 36 36 37 37 36 37 37 36 36 33 35 40 37 32 33 35 33
29 27 25 23 21 21 22 22 23 25 27 30 31 33 32 30 31 28 22 19 18 15 12 11 13 14 15 15 14 13 14 15 17 19 21 21 23 25 27 31 34 36 38 40 42 43 44 43 41 39 39 38 36 34 33 31 33 34 33 35 38 40 40 39 39 38 36 37 36 37 38 38 36 36 36 34 33 31 33 38 39 38 40 38 32
28 27 24 22 21 21 20 20 22 25 26 28 31 33 33 32 28 23 18 16 12 10 9 10 11 12 12 12 12 13 14 15 17 19 21 21 23 25 28 31 34 37 40 42 44 45 45 45 43 41 40 39 37 36 35 34 34 35 34 34 37 38 38 38 37 35 35 36 36 37 38 37 34 33 33 32 32 31 31 34 35 38 41 39 35
28 26 23 21 21 20 19 20 23 24 27 31 34 35 34 29 22 16 13 10 8 7 7 7 8 8 9 10 11 13 15 16 18 19 21 22 24 26 28 31 35 38 41 43 44 46 46 46 44 42 41 40 39 38 37 36 35 36 36 36 38 39 38 38 38 36 35 37 37 37 37 36 34 34 33 33 33 33 33 33 34 35 38 39 37
26 24 22 20 19 18 19 22 25 28 33 37 37 35 29 21 15 13 12 10 9 8 7 5 5 6 7 9 11 13 15 17 19 19 21 22 24 26 29 32 35 39 42 44 45 46 46 46 45 43 42 41 41 39 38 38 37 37 38 38 39 39 39 40 39 38 38 39 38 38 37 36 36 37 36 35 34 34 33 32 32 33 34 35 35
24 23 21 19 18 18 19 24 29 34 38 39 36 29 21 16 14 14 14 12 11 9 6 4 3 5 6 9 12 13 15 17 18 19 21 22 23 25 29 32 36 39 42 44 45 46 46 46 45 44 43 43 42 40 39 38 37 37 37 36 36 35 36 37 38 39 40 40 41 41 40 38 36 36 36 35 34 33 32 30 30 30 29 30 30
22 22 20 20 19 18 21 27 32 33 32 30 26 22 19 19 18 16 14 13 10 8 5 2 2 4 6 8 10 11 14 15 17 19 20 21 23 26 29 33 36 38 41 43 45 46 46 46 45 45 44 43 41 40 37 35 33 32 32 31 30 30 32 34 36 37 39 40 41 42 42 41 39 37 37 35 33 32 32 30 29 30 29 30 32
20 20 19 20 19 19 24 29 29 27 26 23 22 21 22 22 19 16 13 11 8 6 4 1 1 3 6 9 10 12 14 15 16 17 19 22 24 27 30 34 36 38 41 43 44 45 45 45 44 44 43 42 40 37 35 33 31 29 28 28 28 29 31 33 35 36 38 39 40 41 41 41 41 38 36 34 32 32 33 32 32 32 32 33 35
20 18 17 18 18 21 24 25 26 26 24 24 23 22 22 19 16 14 12 10 7 5 3 2 4 7 10 12 15 17 18 17 17 18 20 23 27 30 33 36 38 40 42 43 43 43 43 42 42 42 41 39 36 34 34 32 31 30 29 28 28 29 30 31 32 34 36 38 39 40 41 40 39 37 35 33 33 33 32 33 32 31 30 31 33
17 16 17 17 18 22 23 28 32 29 28 27 24 21 19 16 13 12 10 9 8 6 4 6 9 12 14 15 18 20 20 20 19 20 23 27 30 34 36 38 40 41 41 41 41 40 40 40 39 39 38 35 33 32 32 31 30 29 28 27 27 27 27 28 29 31 33 35 37 38 39 38 37 36 35 34 35 33 31 33 33 31 28 27 29
15 15 18 20 20 23 27 34 35 32 29 25 21 18 16 14 12 10 8 7 7 7 7 9 11 13 15 17 20 22 22 21 21 23 27 30 33 35 37 38 39 39 38 38 37 36 37 37 37 35 33 32 31 31 30 29 29 28 27 26 26 26 25 25 27 29 31 33 35 36 36 36 36 36 35 34 33 31 29 31 33 32 28 26 29
15 18 23 25 27 30 34 35 33 30 26 21 18 16 14 12 9 8 8 8 7 8 9 10 11 14 17 19 21 22 23 23 24 26 28 30 32 33 34 35 35 34 33 32 33 33 34 33 32 30 29 29 29 29 28 28 27 26 26 25 25 25 25 24 25 27 28 29 31 32 33 33 34 35 34 33 31 30 28 28 30 29 26 27 30
20 25 30 35 37 37 34 31 29 26 23 20 18 16 13 11 8 7 8 9 9 9 9 10 12 15 18 19 20 21 23 24 26 28 28 29 29 30 31 31 30 29 28 28 28 29 28 28 27 27 27 27 27 27 27 27 27 26 26 25 24 24 24 23 23 23 23 24 25 27 28 29 30 31 31 30 30 28 27 27 27 27 27 29 31
29 34 38 40 39 35 30 28 27 24 20 19 17 13 11 11 10 9 9 9 9 9 9 9 12 15 18 20 21 22 22 24 26 27 27 27 27 27 28 27 25 23 23 23 24 24 25 26 27 27 27 27 27 27 27 27 26 26 26 25 24 22 21 21 21 20 20 20 21 23 24 25 26 27 28 28 27 26 26 25 25 27 28 28 28
37 42 43 40 36 30 27 27 26 24 21 17 13 10 9 11 12 11 9 8 8 7 6 8 11 15 18 20 22 23 23 24 25 25 24 25 25 26 26 25 22 20 20 20 22 24 25 27 28 29 28 28 28 27 26 26 25 25 25 25 24 22 20 19 19 17 18 18 19 20 22 23 23 24 25 25 25 26 27 27 27 27 27 25 25
42 42 39 35 32 28 27 27 25 21 18 14 10 8 8 10 11 11 8 7 5 4 6 8 12 15 18 20 21 21 22 23 23 23 24 25 25 25 26 24 21 19 19 21 23 26 27 28 29 29 29 29 28 27 26 25 25 24 23 23 23 22 19 18 17 17 17 18 18 18 20 21 22 22 22 23 24 27 29 29 29 28 25 23 23
41 37 32 30 29 27 26 24 20 17 14 11 10 10 11 11 11 10 7 5 3 3 6 9 13 15 16 17 18 18 19 21 22 23 24 25 26 26 26 26 24 22 21 22 25 28 29 30 30 30 30 29 28 28 27 26 25 24 23 22 22 21 19 17 17 17 17 18 18 18 18 19 20 21 22 22 24 26 28 29 30 28 25 23 23
33 29 26 24 24 24 22 19 17 16 13 11 11 13 14 14 11 8 6 4 3 4 6 9 12 13 15 15 16 17 19 21 22 23 25 26 27 27 28 28 29 28 27 26 28 29 30 31 31 31 30 29 29 28 28 27 25 24 23 22 21 20 18 17 17 17 17 18 19 18 17 17 19 21 22 22 23 25 25 27 29 28 24 22 21
28 26 24 23 23 22 21 19 17 15 14 14 15 16 15 13 9 6 5 4 4 5 6 8 10 12 13 14 15 17 20 22 23 24 26 26 27 28 30 32 32 32 31 30 30 30 31 31 31 31 31 30 29 28 28 27 26 24 23 22 21 19 17 16 16 16 16 18 19 18 16 17 18 19 21 22 23 23 23 24 25 24 22 20 20
26 25 24 23 22 22 21 18 16 15 16 17 18 16 14 10 7 5 4 4 4 5 6 8 9 10 12 14 16 18 19 22 23 24 26 27 28 29 31 32 33 32 32 31 31 32 33 33 32 32 31 30 29 29 29 28 26 24 22 21 20 18 16 15 14 14 14 17 18 17 16 17 17 17 19 21 22 21 21 20 20 20 19 19 20
22 21 22 22 21 21 19 17 17 18 19 19 17 14 11 7 4 3 3 3 5 5 7 8 9 11 12 15 17 18 19 22 24 25 28 30 31 31 31 31 33 33 32 32 32 33 34 34 33 32 32 31 30 30 30 29 27 25 23 22 20 17 15 13 12 11 11 12 13 14 16 16 16 16 17 19 20 18 17 17 17 18 18 18 20
19 19 20 20 18 17 17 18 19 21 20 18 14 11 7 5 3 1 2 3 4 6 7 9 10 11 13 15 17 18 20 23 25 27 29 31 33 33 32 31 32 33 33 33 33 33 34 35 35 34 33 32 31 31 30 30 28 26 24 23 21 17 14 12 10 9 8 8 8 9 11 14 15 15 15 16 16 15 14 16 17 17 16 18 21
20 20 18 16 15 16 17 19 20 20 18 14 11 7 5 3 1 2 3 3 4 6 8 9 11 12 13 15 17 18 20 22 23 25 28 30 33 34 34 32 32 33 34 34 34 33 34 35 35 35 34 33 32 31 31 30 29 27 25 23 21 18 14 12 11 7 4 3 2 2 5 10 13 15 14 14 14 13 13 15 16 14 14 17 21
19 18 16 15 16 17 19 20 19 17 15 12 9 6 3 2 2 3 3 4 5 8 10 11 11 12 13 14 15 17 19 20 21 23 25 28 31 34 35 34 33 32 33 34 35 34 33 34 35 35 35 34 33 32 31 31 30 29 27 24 22 18 15 13 11 7 4 5 6 5 1 4 10 14 15 14 13 12 12 13 13 14 16 19 22
15 15 15 16 17 18 19 19 17 15 13 11 7 5 4 4 3 3 4 5 7 9 12 12 12 11 12 12 14 15 17 18 19 21 23 26 28 31 34 36 35 33 32 32 34 34 33 33 34 35 35 34 33 32 32 32 31 30 28 26 23 19 17 14 10 6 6 8 8 6 4 2 6 11 13 13 13 13 13 13 15 17 20 22 24
14 15 16 17 17 18 18 17 15 13 12 9 6 6 6 5 4 4 5 6 8 10 12 12 12 11 11 11 12 14 16 17 18 20 22 24 26 29 32 35 36 35 33 31 31 33 33 33 33 34 34 34 32 31 31 31 31 30 29 27 24 20 17 14 11 8 7 8 7 5 3 2 4 8 11 13 13 14 15 16 18 21 24 25 26
13 14 14 15 16 16 16 14 13 10 8 7 6 6 6 5 5 5 6 7 8 10 11 12 11 10 10 10 11 12 14 16 18 19 21 23 25 27 29 32 35 36 35 33 32 32 33 33 33 33 34 34 33 31 30 30 30 30 29 28 26 22 18 15 12 10 9 8 6 4 3 2 4 7 10 12 14 15 17 19 21 24 26 27 27
10 11 11 13 13 14 13 11 9 7 5 5 5 5 5 5 6 6 6 7 8 9 10 11 10 10 10 10 10 11 12 15 17 18 20 22 24 25 26 29 33 35 35 35 34 33 33 33 33 33 34 34 33 32 30 29 30 31 30 29 28 25 21 17 15 12 10 8 6 5 2 2 3 6 10 13 14 16 19 21 23 24 26 27 28
8 9 11 12 11 10 10 8 6 5 4 3 4 5 5 5 6 6 7 7 8 8 10 10 10 10 10 10 9 10 10 12 15 17 19 21 22 23 24 26 29 32 34 35 36 35 34 33 32 32 33 34 34 33 31 29 30 31 31 30 29 27 23 19 16 13 10 8 6 5 2 3 4 7 10 13 15 17 19 21 24 25 27 29 30
9 10 10 10 9 8 8 6 5 4 3 3 4 5 5 6 6 7 7 8 8 9 10 10 11 11 11 11 10 10 10 10 12 15 18 19 21 22 23 24 26 29 33 35 36 36 36 34 32 31 31 32 33 33 32 30 29 30 31 31 30 29 25 20 17 14 11 8 6 4 3 4 6 9 11 13 15 18 20 23 26 27 28 30 32
9 9 8 8 8 7 6 5 4 4 4 4 5 5 6 6 6 6 7 8 9 9 10 10 11 11 12 12 12 12 11 10 11 12 15 18 20 21 22 23 23 26 30 33 36 37 37 35 33 31 30 30 31 32 32 31 28 28 30 30 29 28 26 22 18 14 12 8 5 3 4 6 8 11 12 14 17 19 22 25 28 29 30 32 34
7 7 7 7 7 6 5 5 4 4 4 4 4 4 4 4 6 7 8 8 9 9 10 10 11 12 12 13 13 13 13 11 10 11 12 15 18 20 21 22 22 23 26 30 34 36 36 36 34 32 29 28 28 29 31 31 28 26 27 28 28 27 26 23 19 14 11 8 6 6 7 8 10 13 15 17 19 22 24 27 29 31 32 34 35
7 7 7 7 7 6 6 5 5 4 4 3 2 3 4 5 7 7 8 8 9 9 9 10 10 11 12 13 13 13 13 13 12 11 11 13 16 19 20 21 21 21 23 26 30 34 36 36 35 33 30 28 27 27 29 30 27 24 24 24 25 26 26 24 20 14 11 9 8 9 9 11 13 15 17 19 21 23 26 28 30 32 34 35 36
7 7 7 7 7 7 7 5 4 3 2 2 3 4 5 6 7 7 7 8 8 8 9 10 10 11 12 13 13 13 14 13 12 11 10 11 14 17 19 20 20 20 20 22 26 30 33 35 35 33 30 27 26 26 27 28 26 23 21 21 22 24 26 25 22 17 13 11 11 12 13 14 16 18 20 22 23 25 28 30 31 32 33 34 34
Wind_Direction
237 236 237 240 242 241 237 235 233 231 232 234 234 232 231 230 229 230 233 238 242 244 243 244 246 251 258 266 273 279 282 281 284 291 298 305 311 316 317 318 319 320 320 319 317 315 313 311 310 309 309 308 309 307 303 298 291 284 277 273 269 262 260 257 256 266 274 274 273 273 271 269 271 278 282 281 280 282 287 282 270 268 276 277 270
243 240 236 237 245 248 243 238 236 235 234 235 236 234 232 232 232 232 233 236 240 241 240 241 244 249 255 262 269 274 275 273 275 282 289 295 302 308 311 315 317 318 319 319 318 317 315 313 311 309 306 304 305 306 305 303 299 293 285 278 275 269 264 264 261 263 270 272 271 272 272 270 269 271 274 276 276 276 283 287 276 265 266 271 270
253 248 241 238 244 249 248 243 239 238 238 237 235 234 232 232 234 235 235 236 239 238 236 237 239 244 250 258 267 272 272 270 271 277 284 289 296 303 306 310 313 315 317 317 316 316 315 315 314 313 310 305 302 300 300 300 299 298 294 287 282 277 272 271 269 267 270 272 270 270 272 271 269 269 269 270 272 272 275 282 283 273 265 265 265
264 260 252 245 243 245 249 250 245 240 240 239 237 234 233 232 233 236 237 238 239 237 234 234 235 239 246 254 263 269 269 269 270 276 282 288 295 300 303 307 310 312 313 312 311 312 312 313 315 315 314 311 307 304 301 299 298 297 296 295 292 288 282 278 275 272 271 272 272 270 270 270 270 270 270 271 271 270 268 271 280 281 273 267 264
264 264 260 253 248 245 248 253 250 244 241 242 240 236 233 233 234 235 237 238 238 236 234 234 235 239 244 251 259 263 263 264 268 274 281 288 294 299 302 305 307 308 308 307 308 310 311 311 313 314 314 312 311 311 309 307 304 300 298 297 297 295 293 289 283 277 273 272 274 273 271 271 271 270 271 272 273 272 267 264 269 277 278 274 269
270 263 260 259 255 250 247 247 247 245 242 241 240 237 234 234 235 236 237 237 235 234 234 235 237 241 246 251 256 257 257 259 265 273 281 288 294 298 301 303 304 304 306 308 310 311 311 311 311 311 311 309 308 308 309 309 307 305 302 299 296 294 292 291 287 283 278 272 273 275 274 273 272 270 269 268 270 272 270 265 262 265 274 279 275
303 287 271 264 260 255 251 248 245 244 242 238 236 235 234 235 236 236 237 236 234 234 234 235 239 244 248 252 253 253 254 259 267 276 284 291 295 297 299 300 302 305 308 310 312 311 310 310 309 309 308 307 305 304 304 305 304 303 302 300 298 294 290 288 286 285 284 278 274 274 275 275 273 272 271 268 268 270 271 271 266 263 268 275 275
318 313 300 283 268 259 255 254 251 248 245 240 233 231 233 234 234 236 236 235 234 234 236 238 241 245 248 250 251 253 257 264 274 283 290 294 296 296 298 301 304 308 309 311 311 310 310 309 308 308 308 306 305 303 302 301 301 300 299 298 296 294 292 290 289 288 287 285 280 275 273 273 272 271 271 270 269 271 272 274 272 269 268 270 271
319 318 312 303 290 273 262 258 256 252 248 242 233 229 231 230 230 234 234 232 232 234 238 241 243 244 246 247 250 255 263 272 281 289 293 294 295 298 301 304 307 309 310 311 312 311 311 311 310 309 308 306 305 303 301 300 299 298 298 296 294 292 290 289 288 287 286 284 283 279 275 273 272 273 272 269 269 272 273 273 272 272 271 270 270
307 308 308 308 302 288 275 267 261 255 249 241 233 230 229 226 227 231 229 227 231 233 235 239 242 243 243 246 253 261 269 280 288 293 294 295 298 301 304 306 308 310 312 314 314 314 314 313 311 310 308 306 304 302 300 298 297 296 297 296 294 291 289 287 285 283 281 279 278 278 276 273 272 272 272 269 265 265 266 266 267 269 270 271 272
293 293 295 297 295 287 279 273 266 258 251 243 236 232 229 225 226 227 224 223 228 231 232 237 240 242 243 248 256 266 277 287 291 293 295 298 302 303 304 306 308 311 314 316 316 316 315 313 311 309 307 306 304 302 300 298 297 296 295 295 294 292 288 286 284 280 278 275 272 272 272 272 271 270 271 271 267 263 262 262 262 264 267 269 271
285 283 284 285 283 280 276 270 265 260 254 248 240 232 226 224 224 221 218 220 223 225 229 233 237 241 246 251 260 273 284 288 289 292 297 300 302 302 303 305 307 310 313 315 316 316 314 312 310 309 307 306 305 303 302 300 298 297 295 294 293 291 288 284 281 279 276 273 271 267 266 267 268 268 268 270 269 266 264 262 260 260 262 265 268
284 279 280 279 277 275 269 263 261 259 255 248 239 230 224 223 220 215 215 219 219 221 226 230 235 242 248 255 267 278 284 285 288 293 297 299 300 302 303 304 305 308 312 314 316 316 314 313 311 310 308 307 305 303 302 300 299 297 295 293 291 290 288 284 280 277 273 271 269 267 266 266 266 266 267 270 272 272 270 267 263 259 257 259 262
288 282 279 278 278 275 269 262 257 254 252 245 237 233 230 223 216 212 215 216 216 219 224 230 237 245 253 262 272 277 280 283 288 291 294 298 301 303 304 304 305 308 311 315 317 316 316 315 313 312 311 308 307 305 303 301 299 296 294 293 291 290 288 285 282 278 273 269 266 266 266 265 265 266 266 267 269 270 269 269 267 262 259 260 261
289 286 281 280 280 277 274 269 259 253 250 245 240 236 228 217 211 212 210 206 209 216 223 234 241 249 259 266 272 277 280 283 285 290 297 303 305 306 307 308 309 310 313 316 318 318 318 317 316 315 314 312 310 307 304 301 298 295 293 291 290 289 287 284 282 280 276 272 269 267 266 264 263 265 265 264 264 265 266 268 267 264 261 260 260
287 287 285 282 281 279 277 273 265 257 251 248 245 235 221 210 207 203 194 191 200 207 214 231 243 252 262 269 276 280 281 282 287 297 306 309 310 311 311 311 312 313 315 318 318 318 319 319 319 318 316 314 313 309 305 301 297 293 291 289 288 287 285 283 282 279 277 275 273 270 268 265 263 261 260 260 259 260 263 266 265 263 262 260 259
285 287 286 284 282 281 278 273 269 262 253 249 243 228 215 208 201 193 191 193 196 199 209 226 242 254 263 271 278 280 282 289 299 308 312 312 312 313 313 313 313 313 315 317 317 318 319 320 320 319 317 316 314 311 307 302 296 291 289 287 286 284 283 282 281 279 277 277 276 274 272 270 267 264 262 260 257 253 251 252 252 253 257 259 258
284 285 287 286 283 281 279 276 272 264 253 247 234 216 206 200 191 187 190 189 185 192 210 228 245 259 267 273 279 284 292 303 308 311 313 312 313 314 314 313 312 312 313 314 315 316 317 318 320 319 317 316 315 313 309 303 297 292 288 285 283 280 280 280 279 278 277 277 276 275 274 273 272 270 269 267 265 258 250 249 249 248 251 255 257
286 283 284 285 281 280 282 279 271 262 252 242 224 204 192 186 181 180 182 182 184 195 214 236 254 264 270 276 283 293 302 306 309 310 311 312 313 314 313 312 311 311 312 312 314 314 315 316 318 317 317 316 315 313 310 305 299 295 291 287 283 281 280 281 280 278 276 275 274 273 273 274 273 272 270 270 269 264 255 252 250 248 249 252 255
285 279 279 280 276 276 280 274 265 257 241 218 199 188 182 179 177 178 180 182 190 204 223 243 255 261 270 281 291 301 304 306 308 309 310 312 313 313 312 311 310 310 310 311 312 312 312 314 315 316 316 316 314 311 308 304 300 296 292 286 282 282 284 284 282 280 278 275 273 271 271 273 273 271 269 267 266 263 258 254 250 247 248 249 251
279 274 274 273 268 272 275 263 252 242 220 196 183 180 180 178 177 177 175 177 188 202 216 232 246 259 275 288 296 302 306 307 309 310 311 313 312 312 311 310 309 309 309 310 310 310 311 312 313 314 315 313 311 309 306 304 301 295 288 282 280 282 283 281 280 278 276 274 272 269 268 268 265 263 261 261 261 261 259 256 252 248 246 245 246
273 269 268 264 262 268 266 250 237 225 207 191 181 179 178 175 173 169 164 170 174 175 185 205 236 265 283 294 300 304 307 308 308 310 311 311 311 311 309 307 307 307 307 308 308 309 310 311 311 312 311 310 309 307 306 304 301 294 288 285 283 282 281 278 277 274 272 271 269 268 266 265 262 261 259 257 257 260 260 257 254 251 247 244 245
265 261 260 257 256 259 255 239 224 208 194 183 179 177 169 155 151 150 151 155 154 151 164 191 243 281 295 301 303 305 307 307 308 309 309 309 308 307 305 303 304 306 307 307 309 310 310 310 310 310 309 308 307 307 306 304 300 294 291 288 286 284 283 280 278 276 274 271 269 267 265 263 261 261 260 258 256 257 258 257 254 253 250 244 243
259 255 253 250 246 249 251 237 215 191 174 169 171 169 155 147 148 146 142 144 145 145 154 177 279 299 308 312 313 311 307 305 305 306 306 306 303 301 301 302 305 308 309 310 311 311 310 309 309 308 307 307 307 308 308 305 300 296 293 290 288 286 283 280 278 276 275 273 272 270 268 265 262 260 260 261 259 254 253 252 249 247 244 239 236
253 248 246 244 240 244 244 229 203 174 155 151 153 151 147 149 151 146 140 141 142 142 145 160 320 344 352 349 342 336 327 318 312 309 305 303 303 304 307 310 313 314 313 312 312 310 309 308 308 308 308 310 312 313 310 308 306 302 299 295 291 286 281 277 275 274 272 271 270 270 269 267 266 264 264 265 261 254 249 248 246 244 243 241 239
249 242 240 237 237 240 229 200 172 161 157 151 145 145 148 151 148 143 140 141 146 152 147 100 46 26 12 359 351 347 341 333 324 317 311 310 312 315 318 319 320 318 315 313 312 310 309 309 308 309 311 314 315 313 310 308 307 304 299 294 288 282 279 277 276 274 273 272 271 271 271 270 270 269 268 265 261 255 248 245 246 245 245 246 245
245 234 228 226 230 231 206 167 153 159 161 152 146 147 149 148 146 142 138 137 145 145 111 66 39 20 8 359 353 348 343 337 330 323 321 322 323 324 324 323 321 317 314 313 312 310 308 308 309 312 314 315 314 312 309 307 305 302 297 291 285 282 281 279 279 277 275 273 272 272 272 272 271 270 267 263 261 256 248 243 244 244 244 246 248
235 220 217 215 212 201 175 153 149 154 156 153 153 151 145 142 141 134 126 125 128 111 73 47 28 14 5 357 350 346 342 338 335 331 330 330 328 326 324 321 318 316 314 312 310 308 307 309 313 316 317 316 314 312 309 307 304 301 298 294 290 288 285 282 280 277 274 272 271 270 269 268 266 265 264 263 261 256 249 243 242 243 243 245 247
218 205 200 191 176 162 152 145 145 150 152 153 154 149 144 141 131 118 117 117 104 77 54 37 20 8 2 354 348 345 342 340 338 337 335 332 328 325 323 320 318 316 313 310 309 309 311 316 319 320 320 319 316 313 311 309 306 303 300 297 295 291 287 285 281 277 274 272 270 268 266 264 262 260 260 259 257 254 249 245 241 241 241 244 248
204 195 184 170 155 146 143 144 144 146 149 150 150 148 145 139 127 117 116 107 84 62 45 26 10 2 358 353 347 344 341 340 340 339 336 334 331 328 326 324 320 315 312 311 312 315 320 325 327 327 327 324 320 317 315 313 310 307 303 300 296 292 288 288 287 283 279 274 270 267 264 262 260 258 256 254 252 249 246 243 239 238 240 244 246
187 175 163 153 146 143 143 143 143 147 153 155 154 152 143 134 130 124 111 91 70 55 35 10 356 353 352 350 348 345 342 341 341 339 338 337 336 335 333 330 324 318 317 319 323 328 334 336 335 334 331 327 324 323 320 317 313 310 307 304 300 295 291 291 292 289 283 279 274 268 263 261 260 257 254 252 248 245 243 241 238 238 241 243 243
165 153 144 140 140 141 141 142 148 156 160 158 154 149 143 139 135 126 107 85 67 47 16 351 344 344 346 347 348 346 344 344 342 341 341 342 343 343 341 337 331 326 327 333 338 342 345 343 339 337 334 330 329 327 324 320 317 313 310 307 304 299 294 291 292 289 283 280 277 270 263 260 259 257 253 250 245 242 242 241 238 238 239 238 238
147 141 138 137 138 140 144 150 156 159 156 153 151 147 142 139 133 124 112 96 74 30 353 341 339 340 344 346 346 346 346 346 344 344 347 350 351 351 349 348 346 342 343 349 352 351 349 346 342 339 336 333 332 330 328 324 321 317 313 310 306 302 296 289 285 282 277 273 271 268 263 258 257 255 251 247 241 238 238 238 239 239 237 236 237
133 132 132 131 135 144 151 154 156 155 152 153 152 143 138 136 132 126 120 107 76 7 344 337 334 336 342 345 346 348 348 348 349 350 353 355 356 356 355 356 359 360 360 1 359 355 351 348 345 341 339 337 335 334 332 329 326 322 318 314 308 303 297 289 281 276 272 267 264 263 260 257 253 250 248 244 240 237 236 237 240 240 235 235 238
121 121 125 131 140 149 152 151 155 159 158 155 150 143 141 139 134 127 116 94 47 356 334 324 323 330 339 346 350 352 352 354 354 355 357 359 0 1 2 3 6 7 8 7 3 357 353 350 347 344 342 340 339 337 336 334 331 327 323 319 314 306 298 290 281 273 268 264 261 259 258 255 249 245 243 240 237 237 236 235 239 238 233 232 237
120 125 134 140 145 150 153 158 164 165 158 150 147 144 142 139 132 117 94 59 20 345 318 310 316 328 340 351 356 356 357 359 0 1 3 4 4 5 7 8 8 9 8 7 3 359 355 352 349 346 344 342 341 340 339 338 336 332 327 324 320 312 302 292 285 276 266 261 258 256 255 255 250 244 241 238 237 238 237 237 240 238 231 231 236
134 141 146 147 150 156 161 165 164 158 152 149 147 143 141 139 128 102 69 27 353 325 303 302 315 331 344 354 359 359 0 2 4 6 8 7 7 9 10 10 10 9 7 5 3 360 356 354 351 349 348 345 344 343 343 342 340 337 333 330 325 317 307 298 290 280 268 262 259 254 251 251 250 246 240 236 236 237 238 241 242 234 227 230 233
147 151 153 154 156 160 160 158 156 155 153 150 146 143 141 134 112 78 38 351 327 308 298 305 320 334 345 355 360 1 360 359 2 7 11 12 11 11 12 11 11 9 6 4 3 0 357 355 353 352 350 349 348 347 346 346 345 343 340 337 332 325 316 308 298 286 274 267 262 255 250 246 243 241 239 235 233 231 232 237 239 232 227 229 228
154 154 154 154 153 154 156 156 156 156 153 149 146 144 137 121 97 46 336 315 303 299 304 315 327 337 347 354 359 359 359 360 3 9 14 15 14 13 13 12 12 11 8 6 4 2 359 356 355 355 353 352 352 351 350 350 350 349 347 344 340 335 329 322 315 302 286 275 267 257 250 241 233 230 232 232 228 224 224 231 234 231 225 222 218
147 148 148 147 148 152 156 157 156 155 153 150 148 143 131 122 161 284 295 294 295 306 315 323 332 339 346 351 356 359 1 2 5 10 13 15 15 14 14 13 12 11 10 7 5 4 1 359 358 358 357 355 355 354 354 354 355 355 353 350 348 346 342 338 334 328 312 306 317 286 247 231 219 214 219 222 218 216 221 228 228 222 215 212 208
143 143 144 147 150 153 155 156 155 156 156 155 151 145 151 200 246 265 282 297 310 317 321 326 332 338 343 348 354 360 1 1 3 6 10 13 13 14 14 14 12 10 9 6 4 4 4 3 2 1 0 359 358 358 358 358 359 359 359 357 355 353 351 348 346 344 354 17 27 30 13 209 199 197 201 205 202 203 214 219 213 206 205 207 204
147 146 148 153 155 156 158 160 161 163 164 163 163 174 203 227 246 268 298 316 321 321 321 323 326 331 337 343 351 358 360 359 359 2 5 9 11 12 13 14 13 11 9 7 4 4 5 7 6 5 4 2 1 1 2 2 3 3 3 2 360 357 355 356 356 356 9 24 29 30 38 127 175 182 187 188 185 189 200 205 200 199 202 203 200
150 150 153 157 160 162 165 167 169 169 169 174 191 212 222 234 258 287 308 318 317 315 316 318 318 324 332 339 346 354 357 357 358 1 3 5 7 10 12 14 14 13 11 10 8 7 8 10 10 10 8 7 5 6 6 6 6 7 7 7 5 1 359 0 3 6 19 30 29 25 38 99 155 168 173 175 177 182 191 196 197 198 199 195 191
149 150 150 153 157 161 164 165 166 169 175 191 214 225 229 245 275 296 304 307 307 309 313 316 317 323 332 336 339 346 354 357 359 2 3 4 5 7 10 13 15 15 14 14 13 11 10 11 12 13 12 11 11 11 11 11 11 11 11 11 10 8 6 7 10 15 23 27 19 12 35 108 155 168 173 177 181 184 189 193 194 194 192 188 184
152 147 143 143 147 152 155 156 161 168 177 196 221 236 248 263 283 294 296 297 301 308 315 319 322 326 331 334 334 340 350 357 1 3 4 3 3 5 8 12 15 16 16 16 17 15 13 11 13 14 13 13 14 14 13 14 15 15 15 14 13 11 10 9 11 16 23 21 10 5 35 119 161 175 179 181 184 186 188 190 190 187 183 181 178
144 140 139 140 143 147 148 147 152 161 174 203 236 251 262 272 281 285 287 293 300 308 315 321 323 324 327 332 335 339 348 356 1 3 3 2 2 3 6 9 13 16 16 16 17 18 16 13 13 13 14 14 15 16 16 15 16 18 18 17 16 15 13 10 9 15 23 23 14 16 56 127 162 175 178 180 183 185 184 182 181 179 175 173 170
129 129 133 136 139 142 142 142 150 169 195 227 248 257 264 271 274 278 285 293 300 306 313 319 322 323 325 330 335 338 345 353 358 0 1 1 0 1 3 6 10 15 16 17 17 18 18 16 14 14 14 15 16 18 18 17 16 18 20 20 19 19 17 15 14 19 25 27 23 32 80 133 157 167 171 175 178 178 174 171 170 169 168 165 162
132 133 135 137 139 141 143 148 163 190 214 232 246 256 262 267 277 287 293 298 303 308 313 317 321 323 326 329 333 335 340 349 356 358 359 359 359 360 1 3 7 12 15 17 17 17 18 18 16 15 15 17 17 18 19 19 17 18 20 21 22 22 21 21 22 25 29 34 44 70 109 132 147 156 162 166 169 168 165 163 162 161 161 160 158
135 141 145 148 150 152 155 162 178 200 214 221 231 248 263 279 291 298 300 303 308 312 315 317 320 323 326 329 332 334 337 346 356 359 359 359 359 359 359 0 4 9 13 16 17 17 18 18 18 16 17 19 20 20 21 21 20 19 19 21 24 26 26 26 27 29 34 48 72 103 121 130 139 146 151 156 159 160 159 157 156 156 156 155 154
134 142 148 152 155 154 154 159 169 181 191 201 227 264 283 292 295 298 303 307 311 315 318 320 321 322 325 330 333 334 337 345 354 360 1 359 358 359 359 359 2 6 10 13 16 17 18 18 18 18 19 21 24 25 24 23 23 22 21 22 26 31 32 32 34 38 49 67 88 106 116 123 131 137 142 148 152 153 152 151 151 152 152 150 149
116 124 130 135 136 135 136 139 148 164 197 245 274 283 288 292 296 300 306 313 320 324 326 326 326 327 329 333 336 337 339 344 352 360 3 1 359 0 1 0 1 5 8 10 14 17 19 19 19 19 20 24 29 31 29 28 28 28 27 27 31 37 40 41 42 46 56 73 89 103 113 121 127 132 137 142 146 147 147 148 149 148 148 147 147
Height
1503 1504 1507 1509 1510 1509 1510 1512 1513 1515 1516 1516 1518 1519 1520 1521 1521 1522 1523 1524 1524 1525 1525 1525 1526 1526 1526 1526 1526 1525 1525 1525 1525 1525 1525 1524 1524 1523 1523 1522 1522 1521 1521 1521 1520 1520 1519 1518 1518 1517 1516 1515 1515 1514 1514 1514 1514 1514 1514 1513 1513 1513 1512 1512 1510 1508 1507 1508 1508 1508 1509 1510 1510 1511 1511 1511 1511 1513 1512 1512 1513 1513 1513 1514 1514
1498 1499 1502 1506 1507 1506 1507 1509 1511 1512 1513 1514 1515 1517 1518 1519 1519 1520 1520 1521 1522 1523 1524 1524 1524 1525 1524 1524 1524 1524 1524 1524 1524 1524 1523 1523 1522 1522 1521 1521 1520 1519 1519 1518 1518 1517 1517 1516 1516 1516 1515 1514 1514 1513 1512 1512 1511 1511 1511 1510 1510 1510 1510 1509 1508 1505 1504 1504 1505 1505 1505 1506 1506 1506 1507 1507 1508 1508 1509 1509 1509 1509 1510 1510 1510
1495 1496 1498 1502 1503 1503 1504 1506 1508 1510 1511 1512 1513 1514 1515 1517 1517 1518 1519 1519 1520 1520 1521 1522 1523 1523 1523 1523 1523 1523 1523 1523 1522 1522 1522 1521 1521 1520 1519 1519 1518 1517 1517 1516 1515 1515 1514 1513 1513 1513 1513 1513 1512 1512 1511 1510 1509 1508 1508 1507 1507 1506 1506 1505 1505 1503 1501 1500 1501 1501 1501 1501 1502 1502 1503 1503 1504 1505 1505 1506 1506 1506 1506 1507 1507
1491 1492 1495 1498 1499 1500 1502 1504 1506 1507 1508 1509 1510 1512 1513 1514 1515 1516 1517 1517 1518 1518 1519 1519 1520 1520 1521 1521 1522 1522 1521 1521 1521 1520 1519 1519 1518 1518 1517 1516 1516 1515 1515 1514 1513 1512 1511 1511 1510 1510 1510 1509 1510 1510 1509 1508 1507 1506 1505 1504 1504 1503 1503 1502 1501 1500 1498 1496 1496 1497 1497 1497 1497 1498 1499 1499 1500 1501 1501 1502 1503 1503 1503 1504 1504
1487 1488 1490 1493 1494 1497 1499 1500 1501 1503 1505 1506 1508 1510 1511 1512 1513 1514 1515 1515 1516 1516 1517 1517 1517 1518 1518 1519 1519 1519 1519 1519 1519 1518 1517 1516 1516 1515 1514 1514 1514 1513 1512 1511 1511 1510 1509 1508 1507 1507 1506 1506 1506 1506 1506 1506 1505 1504 1503 1502 1501 1500 1499 1499 1498 1497 1495 1493 1492 1493 1493 1493 1493 1494 1495 1495 1495 1496 1497 1498 1499 1500 1500 1501 1501
1484 1484 1486 1487 1488 1491 1493 1493 1495 1497 1500 1503 1505 1507 1509 1510 1511 1512 1513 1513 1514 1514 1515 1515 1515 1515 1516 1517 1517 1516 1517 1517 1516 1516 1515 1514 1513 1513 1512 1512 1511 1510 1509 1508 1508 1507 1506 1505 1505 1505 1504 1503 1503 1502 1502 1502 1502 1501 1500 1500 1499 1498 1497 1496 1495 1494 1492 1491 1489 1489 1489 1489 1489 1489 1491 1492 1492 1492 1493 1494 1495 1496 1497 1497 1497
1481 1481 1482 1483 1484 1485 1487 1488 1489 1492 1495 1498 1501 1503 1506 1507 1508 1509 1510 1511 1512 1513 1513 1513 1513 1514 1514 1514 1514 1514 1514 1514 1513 1513 1512 1512 1511 1511 1510 1509 1508 1507 1506 1505 1504 1504 1503 1503 1502 1502 1501 1501 1500 1500 1499 1499 1498 1498 1497 1497 1496 1495 1494 1493 1492 1491 1489 1488 1487 1486 1485 1485 1485 1486 1487 1488 1488 1488 1489 1489 1490 1491 1493 1493 1493
1479 1479 1479 1480 1480 1481 1483 1484 1486 1488 1491 1494 1497 1499 1502 1504 1505 1506 1508 1509 1510 1511 1512 1512 1512 1512 1512 1512 1512 1512 1511 1511 1510 1510 1510 1510 1509 1508 1507 1506 1505 1504 1503 1502 1501 1501 1500 1500 1499 1499 1498 1498 1497 1497 1496 1495 1494 1494 1494 1493 1492 1491 1490 1489 1488 1487 1486 1485 1483 1483 1482 1481 1481 1482 1484 1484 1484 1485 1486 1486 1486 1487 1488 1489 1489
1478 1477 1477 1477 1478 1479 1480 1481 1483 1485 1488 1491 1494 1495 1496 1499 1501 1503 1504 1506 1507 1509 1510 1511 1511 1511 1510 1510 1510 1510 1510 1509 1508 1508 1508 1507 1507 1506 1504 1503 1502 1501 1500 1499 1498 1498 1497 1497 1496 1495 1495 1494 1493 1493 1492 1492 1490 1489 1489 1489 1488 1487 1486 1485 1485 1484 1483 1482 1481 1480 1478 1477 1477 1478 1480 1481 1481 1482 1483 1483 1482 1483 1484 1484 1485
1477 1477 1476 1476 1476 1477 1477 1478 1480 1482 1484 1487 1490 1491 1492 1494 1496 1498 1500 1502 1504 1505 1507 1509 1509 1509 1508 1508 1509 1509 1508 1507 1506 1506 1506 1505 1504 1503 1501 1500 1499 1498 1497 1496 1495 1495 1494 1493 1493 1492 1491 1490 1489 1489 1488 1487 1487 1486 1485 1484 1484 1483 1482 1481 1481 1480 1480 1479 1478 1477 1475 1473 1474 1475 1475 1477 1478 1478 1479 1479 1479 1480 1480 1480 1481
1476 1475 1475 1475 1475 1475 1475 1476 1477 1479 1481 1484 1486 1486 1487 1489 1491 1494 1497 1498 1500 1502 1504 1506 1507 1507 1506 1506 1507 1507 1507 1506 1505 1504 1503 1502 1501 1500 1499 1498 1497 1496 1494 1493 1492 1491 1491 1490 1489 1488 1487 1486 1485 1484 1483 1482 1482 1481 1481 1480 1480 1479 1478 1477 1476 1476 1476 1475 1474 1474 1473 1470 1470 1471 1471 1472 1473 1474 1475 1475 1475 1476 1477 1476 1477
1473 1473 1473 1473 1473 1474 1474 1474 1475 1476 1478 1481 1482 1481 1482 1485 1486 1489 1493 1495 1497 1499 1501 1503 1505 1505 1505 1505 1505 1505 1505 1504 1503 1502 1501 1499 1498 1497 1496 1495 1494 1493 1492 1491 1490 1488 1487 1486 1485 1484 1483 1482 1481 1479 1478 1477 1476 1476 1475 1475 1474 1474 1474 1473 1472 1471 1471 1470 1469 1469 1469 1467 1467 1467 1467 1468 1469 1470 1470 1471 1472 1472 1473 1473 1473
1471 1471 1471 1471 1471 1472 1472 1473 1473 1474 1476 1478 1478 1479 1483 1485 1485 1488 1491 1493 1495 1498 1500 1501 1503 1503 1504 1503 1503 1503 1503 1502 1501 1499 1498 1497 1496 1495 1494 1493 1492 1491 1490 1488 1487 1485 1484 1482 1481 1480 1479 1478 1476 1475 1473 1472 1471 1470 1469 1469 1468 1468 1468 1468 1467 1467 1467 1465 1464 1462 1463 1464 1463 1462 1464 1465 1465 1466 1466 1467 1468 1468 1469 1469 1469
1469 1468 1468 1468 1469 1469 1470 1470 1471 1472 1474 1475 1476 1478 1482 1483 1484 1487 1490 1492 1494 1496 1498 1500 1501 1502 1502 1502 1502 1501 1501 1500 1498 1497 1496 1495 1494 1492 1491 1490 1489 1488 1487 1485 1484 1482 1480 1479 1477 1475 1475 1474 1473 1471 1469 1467 1466 1464 1463 1462 1462 1462 1462 1462 1462 1462 1461 1461 1459 1457 1458 1460 1458 1458 1461 1462 1462 1462 1462 1463 1463 1464 1464 1464 1464
1465 1465 1465 1466 1466 1466 1467 1467 1468 1469 1471 1471 1472 1475 1478 1479 1481 1484 1487 1490 1492 1494 1496 1497 1499 1500 1500 1501 1501 1500 1499 1497 1496 1495 1494 1493 1491 1490 1488 1487 1486 1484 1483 1482 1480 1478 1477 1475 1473 1471 1470 1469 1468 1467 1465 1463 1461 1459 1457 1456 1455 1455 1455 1455 1456 1456 1455 1455 1454 1453 1453 1454 1454 1454 1456 1457 1458 1458 1459 1459 1459 1460 1460 1460 1459
1462 1462 1462 1463 1463 1463 1463 1463 1464 1465 1466 1467 1469 1471 1473 1475 1479 1481 1484 1487 1489 1490 1492 1495 1496 1497 1499 1499 1499 1498 1497 1495 1494 1493 1491 1490 1488 1487 1485 1484 1482 1481 1479 1478 1476 1474 1473 1471 1469 1467 1465 1464 1463 1462 1461 1458 1456 1453 1452 1450 1450 1449 1448 1449 1450 1450 1449 1449 1448 1448 1448 1448 1449 1449 1451 1452 1453 1454 1456 1455 1455 1455 1455 1455 1454
1458 1458 1459 1459 1460 1460 1460 1460 1460 1461 1462 1464 1466 1468 1469 1471 1475 1478 1480 1481 1483 1486 1489 1491 1493 1494 1495 1496 1496 1496 1495 1493 1492 1490 1489 1487 1485 1484 1482 1480 1478 1476 1475 1473 1471 1469 1468 1466 1464 1462 1460 1459 1458 1457 1456 1454 1451 1448 1447 1445 1444 1442 1441 1443 1443 1443 1443 1443 1442 1442 1442 1442 1443 1444 1445 1446 1447 1450 1452 1449 1449 1452 1452 1450 1449
1454 1455 1455 1455 1456 1456 1455 1456 1456 1457 1459 1460 1462 1465 1467 1469 1472 1475 1476 1477 1480 1484 1487 1489 1490 1491 1492 1492 1493 1493 1492 1491 1490 1488 1487 1485 1483 1480 1478 1476 1474 1472 1470 1468 1466 1464 1462 1461 1460 1457 1455 1454 1453 1452 1451 1449 1446 1444 1442 1440 1438 1436 1436 1437 1437 1437 1438 1437 1437 1437 1436 1436 1437 1438 1439 1440 1441 1445 1445 1442 1444 1448 1447 1444 1445
1452 1452 1452 1452 1451 1451 1451 1452 1453 1455 1456 1457 1459 1462 1466 1469 1471 1473 1474 1476 1478 1481 1484 1486 1487 1489 1489 1489 1489 1489 1489 1489 1488 1486 1485 1483 1480 1478 1475 1473 1470 1468 1465 1463 1460 1458 1457 1455 1454 1453 1451 1449 1447 1446 1445 1444 1441 1439 1437 1435 1432 1430 1431 1432 1431 1431 1431 1431 1431 1431 1430 1430 1431 1432 1432 1433 1435 1437 1437 1436 1439 1442 1440 1440 1442
1448 1448 1448 1448 1448 1448 1448 1449 1450 1452 1453 1454 1457 1461 1464 1468 1470 1472 1473 1475 1477 1478 1480 1482 1484 1486 1486 1487 1486 1487 1487 1486 1486 1484 1482 1480 1478 1475 1473 1470 1467 1464 1461 1458 1455 1453 1451 1450 1449 1447 1446 1444 1442 1440 1439 1438 1436 1433 1432 1431 1427 1426 1427 1427 1426 1426 1425 1424 1425 1425 1424 1425 1426 1426 1426 1427 1428 1430 1430 1431 1433 1434 1434 1435 1437
1444 1445 1445 1445 1445 1445 1446 1446 1448 1450 1452 1453 1456 1459 1462 1466 1468 1470 1472 1474 1475 1477 1478 1480 1482 1483 1484 1484 1485 1485 1484 1484 1483 1481 1479 1477 1475 1472 1470 1467 1463 1459 1456 1453 1451 1448 1446 1445 1443 1442 1440 1438 1436 1435 1433 1432 1431 1428 1426 1425 1423 1422 1423 1421 1421 1421 1420 1418 1419 1419 1418 1419 1420 1420 1421 1422 1422 1423 1425 1426 1427 1428 1429 1430 1431
1440 1441 1441 1442 1442 1443 1444 1446 1447 1449 1451 1452 1454 1457 1461 1464 1466 1468 1470 1472 1474 1475 1477 1478 1480 1482 1482 1483 1483 1483 1482 1481 1480 1478 1476 1473 1472 1469 1466 1463 1460 1456 1451 1448 1446 1444 1442 1440 1437 1436 1435 1433 1431 1429 1427 1426 1425 1422 1420 1419 1417 1417 1416 1415 1415 1415 1414 1413 1412 1412 1412 1413 1413 1413 1414 1415 1416 1418 1419 1420 1421 1423 1423 1425 1426
1435 1436 1438 1439 1440 1441 1443 1445 1447 1449 1450 1450 1452 1455 1459 1463 1465 1467 1468 1470 1472 1474 1475 1477 1479 1480 1481 1481 1481 1481 1480 1479 1476 1474 1472 1470 1468 1466 1462 1459 1456 1453 1448 1445 1442 1439 1437 1434 1432 1430 1429 1427 1425 1423 1421 1420 1418 1415 1414 1412 1411 1410 1410 1409 1409 1408 1407 1406 1406 1405 1405 1406 1406 1406 1407 1408 1410 1412 1414 1415 1417 1418 1419 1420 1422
1431 1432 1434 1436 1437 1439 1442 1443 1446 1449 1450 1450 1452 1455 1458 1462 1465 1466 1468 1470 1471 1472 1474 1476 1478 1479 1479 1479 1479 1478 1477 1475 1473 1470 1468 1466 1464 1461 1458 1455 1452 1449 1445 1441 1438 1434 1431 1429 1427 1424 1422 1420 1419 1417 1415 1413 1411 1409 1408 1407 1406 1405 1404 1403 1403 1402 1401 1400 1399 1397 1398 1399 1399 1400 1401 1402 1405 1407 1409 1411 1412 1413 1415 1416 1417
1427 1428 1431 1433 1435 1437 1439 1440 1444 1448 1451 1452 1453 1456 1458 1462 1465 1466 1467 1469 1470 1472 1474 1475 1476 1477 1477 1477 1476 1475 1473 1471 1468 1466 1464 1462 1459 1457 1454 1451 1448 1445 1440 1436 1433 1430 1426 1424 1421 1418 1416 1414 1412 1410 1408 1406 1405 1403 1402 1402 1401 1400 1399 1397 1397 1396 1394 1393 1392 1391 1391 1392 1393 1394 1396 1397 1399 1401 1403 1405 1407 1408 1409 1411 1411
1423 1425 1428 1430 1433 1435 1437 1440 1444 1449 1452 1453 1455 1458 1460 1463 1464 1465 1466 1467 1469 1471 1472 1474 1475 1475 1475 1474 1472 1470 1468 1466 1464 1463 1460 1458 1455 1452 1449 1446 1442 1439 1435 1431 1428 1425 1421 1418 1415 1413 1411 1410 1408 1405 1403 1401 1400 1398 1397 1397 1396 1394 1393 1392 1390 1389 1387 1386 1385 1384 1384 1386 1387 1388 1390 1392 1393 1395 1397 1400 1401 1403 1405 1406 1407
1420 1423 1425 1428 1430 1433 1436 1440 1444 1448 1452 1454 1456 1458 1461 1462 1464 1464 1465 1466 1467 1469 1471 1472 1473 1473 1472 1471 1469 1466 1465 1463 1461 1459 1456 1453 1450 1447 1443 1440 1437 1434 1430 1427 1423 1420 1416 1414 1412 1409 1407 1405 1403 1401 1398 1396 1395 1394 1393 1392 1391 1389 1388 1386 1385 1383 1382 1380 1379 1379 1379 1381 1382 1383 1385 1386 1387 1389 1392 1395 1396 1398 1400 1402 1402
1418 1420 1422 1425 1427 1431 1435 1439 1442 1447 1451 1455 1457 1459 1460 1461 1463 1464 1464 1465 1466 1468 1470 1470 1470 1470 1469 1467 1465 1463 1462 1460 1458 1455 1452 1449 1446 1443 1440 1436 1433 1430 1426 1422 1419 1415 1413 1410 1408 1406 1403 1401 1398 1396 1394 1392 1391 1389 1388 1387 1386 1384 1383 1381 1380 1378 1376 1375 1375 1374 1375 1376 1377 1378 1379 1381 1382 1384 1387 1389 1391 1393 1396 1398 1397
1416 1418 1420 1423 1427 1431 1436 1439 1442 1446 1451 1455 1458 1459 1460 1460 1461 1462 1463 1464 1466 1467 1468 1468 1468 1467 1466 1464 1463 1461 1459 1457 1455 1452 1450 1447 1444 1440 1437 1434 1430 1427 1423 1419 1416 1412 1410 1407 1404 1402 1399 1397 1394 1392 1390 1388 1387 1385 1384 1382 1381 1379 1378 1376 1374 1373 1372 1371 1370 1369 1370 1370 1371 1373 1375 1376 1377 1379 1382 1385 1387 1389 1391 1392 1392
1413 1415 1418 1422 1427 1432 1436 1440 1443 1447 1451 1454 1457 1458 1459 1459 1460 1461 1462 1464 1465 1466 1466 1466 1466 1465 1464 1463 1462 1460 1457 1455 1453 1450 1448 1445 1442 1439 1436 1432 1428 1424 1420 1417 1414 1410 1407 1404 1402 1399 1397 1394 1392 1389 1387 1385 1382 1380 1379 1378 1376 1374 1373 1371 1370 1368 1367 1366 1365 1365 1365 1366 1366 1368 1370 1371 1373 1375 1377 1380 1383 1385 1386 1387 1388
1410 1414 1417 1422 1427 1432 1436 1440 1444 1448 1452 1454 1456 1457 1457 1457 1458 1460 1461 1463 1464 1465 1465 1465 1464 1463 1463 1462 1461 1458 1456 1454 1451 1449 1446 1443 1440 1437 1433 1429 1425 1422 1418 1414 1411 1408 1405 1402 1399 1397 1395 1392 1389 1387 1384 1381 1379 1376 1374 1372 1371 1370 1368 1367 1365 1364 1363 1362 1361 1361 1361 1362 1362 1364 1366 1367 1369 1371 1374 1376 1379 1380 1382 1383 1384
1410 1415 1420 1424 1429 1433 1437 1440 1445 1449 1452 1453 1454 1455 1455 1456 1457 1459 1461 1462 1463 1464 1464 1464 1463 1462 1462 1461 1459 1457 1455 1452 1450 1447 1444 1441 1438 1434 1430 1427 1423 1419 1415 1412 1409 1406 1403 1401 1398 1395 1392 1389 1386 1384 1381 1378 1375 1373 1371 1368 1367 1366 1364 1363 1362 1361 1359 1358 1358 1357 1357 1358 1359 1360 1362 1364 1366 1368 1371 1373 1375 1376 1377 1379 1380
1412 1419 1424 1427 1430 1434 1438 1442 1446 1448 1449 1451 1452 1453 1454 1455 1457 1459 1460 1462 1463 1463 1463 1463 1462 1462 1461 1459 1458 1456 1454 1451 1448 1445 1442 1439 1435 1431 1428 1424 1420 1416 1413 1410 1407 1404 1401 1399 1396 1393 1390 1387 1384 1381 1378 1375 1372 1370 1368 1365 1363 1361 1360 1359 1358 1357 1356 1355 1355 1354 1354 1355 1356 1357 1359 1360 1363 1365 1367 1369 1371 1372 1374 1375 1377
1416 1421 1425 1428 1431 1436 1439 1442 1444 1446 1448 1449 1451 1452 1453 1455 1457 1459 1460 1461 1462 1462 1462 1462 1461 1461 1460 1459 1457 1455 1453 1450 1447 1444 1440 1436 1432 1429 1425 1422 1418 1415 1412 1408 1406 1403 1400 1397 1394 1391 1388 1384 1381 1378 1375 1372 1370 1367 1364 1362 1360 1358 1357 1356 1355 1353 1352 1352 1351 1351 1351 1352 1353 1354 1355 1357 1359 1361 1363 1365 1367 1369 1370 1372 1373
1419 1423 1426 1430 1433 1437 1440 1441 1443 1445 1447 1449 1450 1452 1454 1456 1458 1459 1460 1461 1461 1461 1461 1461 1461 1460 1460 1458 1456 1454 1451 1448 1445 1441 1438 1434 1430 1427 1423 1419 1415 1412 1409 1407 1404 1402 1399 1396 1392 1389 1386 1382 1379 1376 1372 1369 1367 1364 1361 1359 1357 1355 1353 1352 1351 1350 1349 1348 1348 1348 1349 1349 1350 1351 1353 1354 1356 1358 1360 1361 1363 1365 1367 1369 1370
1422 1425 1429 1432 1435 1437 1439 1441 1443 1445 1447 1449 1451 1453 1455 1456 1458 1459 1460 1460 1460 1460 1460 1460 1460 1459 1458 1457 1454 1452 1449 1446 1443 1440 1436 1433 1429 1425 1421 1417 1414 1411 1408 1406 1404 1401 1398 1395 1391 1387 1384 1380 1377 1373 1370 1367 1364 1361 1359 1356 1354 1352 1350 1349 1348 1346 1346 1345 1344 1345 1345 1346 1347 1348 1350 1351 1353 1355 1357 1358 1360 1362 1364 1366 1367
1424 1427 1430 1433 1435 1437 1439 1442 1444 1446 1448 1450 1452 1453 1455 1456 1458 1458 1459 1459 1460 1460 1460 1460 1459 1458 1457 1455 1453 1450 1448 1445 1443 1439 1436 1433 1429 1425 1421 1418 1414 1411 1408 1406 1403 1400 1397 1393 1390 1386 1382 1378 1375 1371 1368 1364 1361 1358 1356 1353 1351 1349 1347 1346 1344 1343 1342 1341 1341 1341 1342 1342 1344 1345 1347 1348 1350 1352 1354 1356 1357 1359 1361 1363 1364
1427 1429 1432 1434 1436 1439 1441 1443 1445 1447 1449 1451 1452 1454 1455 1456 1457 1458 1458 1459 1459 1459 1459 1459 1458 1457 1455 1453 1451 1449 1446 1444 1442 1438 1435 1432 1428 1425 1421 1418 1415 1412 1409 1406 1402 1399 1396 1392 1388 1384 1380 1376 1373 1369 1366 1362 1359 1356 1353 1351 1348 1346 1344 1343 1341 1340 1339 1339 1338 1338 1338 1339 1340 1342 1344 1345 1347 1349 1351 1353 1355 1357 1359 1360 1362
1430 1432 1434 1436 1439 1441 1442 1444 1446 1448 1450 1451 1453 1454 1455 1456 1457 1457 1458 1458 1458 1458 1458 1457 1456 1455 1453 1451 1449 1447 1445 1442 1439 1437 1434 1431 1428 1425 1422 1419 1416 1413 1409 1406 1402 1398 1395 1391 1387 1383 1379 1375 1372 1368 1364 1361 1357 1354 1351 1348 1346 1344 1342 1340 1339 1338 1337 1336 1336 1335 1335 1336 1337 1339 1341 1343 1345 1347 1349 1351 1353 1355 1357 1358 1360
1433 1435 1437 1439 1440 1442 1443 1445 1447 1449 1450 1452 1453 1454 1455 1456 1457 1457 1457 1457 1457 1457 1456 1456 1454 1453 1451 1450 1448 1446 1443 1441 1439 1437 1434 1432 1429 1426 1423 1419 1416 1413 1409 1406 1402 1398 1394 1391 1386 1382 1378 1375 1371 1367 1363 1360 1356 1353 1350 1347 1344 1342 1340 1338 1337 1336 1335 1334 1334 1333 1333 1333 1335 1337 1339 1341 1343 1346 1348 1350 1352 1354 1355 1357 1359
1435 1436 1438 1440 1441 1442 1444 1446 1448 1449 1451 1452 1453 1454 1455 1456 1457 1457 1457 1456 1456 1456 1455 1454 1453 1452 1450 1449 1447 1445 1443 1441 1439 1437 1435 1432 1430 1427 1424 1420 1417 1413 1409 1406 1402 1398 1394 1390 1386 1382 1378 1374 1370 1367 1363 1359 1355 1352 1349 1346 1343 1341 1339 1338 1336 1335 1334 1333 1332 1332 1332 1332 1333 1335 1337 1339 1342 1344 1346 1348 1350 1352 1354 1356 1358
1436 1437 1439 1440 1442 1443 1445 1447 1448 1450 1451 1453 1454 1455 1456 1456 1456 1456 1456 1455 1455 1454 1454 1453 1452 1451 1450 1448 1447 1445 1443 1441 1439 1437 1435 1433 1431 1428 1425 1421 1417 1413 1410 1406 1403 1399 1395 1391 1387 1383 1379 1375 1371 1366 1362 1359 1355 1352 1349 1346 1343 1341 1339 1338 1336 1335 1334 1333 1332 1332 1332 1333 1333 1335 1337 1339 1341 1343 1345 1347 1349 1351 1353 1355 1357
1437 1438 1440 1441 1443 1445 1446 1448 1449 1450 1452 1453 1454 1455 1456 1456 1456 1456 1455 1454 1454 1453 1453 1452 1451 1450 1449 1448 1447 1445 1444 1442 1440 1438 1435 1433 1431 1429 1426 1422 1418 1414 1411 1407 1404 1400 1396 1392 1388 1384 1380 1376 1372 1367 1364 1360 1356 1353 1350 1347 1344 1342 1340 1338 1337 1335 1334 1333 1333 1333 1333 1333 1334 1335 1337 1339 1341 1343 1344 1346 1348 1350 1352 1355 1357
1438 1440 1441 1442 1444 1445 1447 1448 1450 1451 1452 1453 1454 1455 1455 1455 1455 1455 1454 1453 1453 1452 1452 1451 1450 1449 1448 1448 1447 1445 1444 1442 1440 1438 1436 1434 1432 1430 1427 1423 1420 1416 1412 1408 1405 1401 1397 1393 1389 1385 1381 1377 1373 1369 1365 1362 1358 1355 1351 1348 1346 1343 1341 1339 1338 1336 1335 1334 1334 1334 1334 1335 1335 1336 1338 1339 1341 1342 1344 1346 1348 1350 1352 1355 1357
1440 1441 1442 1443 1445 1446 1448 1449 1451 1452 1453 1454 1454 1455 1455 1455 1454 1454 1453 1453 1452 1452 1451 1450 1449 1449 1448 1447 1446 1445 1444 1442 1440 1438 1436 1434 1432 1430 1427 1424 1421 1418 1414 1410 1406 1402 1398 1394 1390 1386 1383 1379 1374 1370 1367 1363 1360 1357 1353 1350 1347 1345 1342 1340 1339 1337 1336 1336 1335 1336 1336 1336 1337 1337 1338 1340 1341 1343 1345 1346 1348 1350 1353 1355 1358
1442 1443 1444 1445 1446 1448 1449 1450 1451 1452 1453 1454 1454 1454 1454 1454 1453 1453 1453 1452 1451 1451 1450 1449 1448 1448 1447 1446 1446 1445 1443 1442 1440 1438 1437 1435 1433 1430 1428 1425 1422 1419 1416 1412 1408 1404 1400 1396 1392 1388 1384 1380 1376 1372 1369 1365 1362 1359 1356 1353 1350 1347 1345 1343 1341 1339 1338 1338 1337 1338 1338 1338 1338 1339 1340 1342 1343 1344 1346 1348 1350 1352 1355 1357 1360
1444 1445 1446 1447 1448 1449 1449 1450 1451 1452 1453 1453 1454 1454 1453 1453 1453 1452 1452 1451 1451 1450 1449 1448 1448 1447 1446 1445 1445 1444 1443 1442 1440 1439 1437 1435 1433 1431 1428 1426 1423 1420 1417 1413 1410 1405 1401 1398 1394 1390 1386 1383 1379 1375 1371 1367 1364 1361 1358 1355 1352 1350 1347 1345 1343 1342 1341 1340 1340 1340 1340 1340 1341 1342 1343 1344 1346 1347 1349 1351 1353 1355 1357 1360 1362
1446 1447 1447 1448 1449 1449 1450 1451 1451 1452 1452 1453 1453 1453 1453 1452 1452 1452 1451 1451 1450 1450 1449 1448 1447 1446 1445 1445 1444 1443 1442 1441 1440 1439 1437 1435 1433 1431 1429 1427 1424 1421 1418 1415 1411 1407 1403 1400 1396 1392 1388 1385 1381 1378 1374 1370 1367 1364 1361 1358 1355 1353 1351 1348 1346 1345 1344 1344 1343 1343 1343 1343 1344 1345 1346 1347 1349 1350 1352 1354 1356 1358 1360 1363 1366
1448 1448 1449 1449 1449 1449 1450 1450 1451 1452 1452 1452 1452 1452 1452 1452 1452 1451 1451 1451 1450 1449 1448 1448 1447 1446 1445 1444 1443 1442 1441 1440 1440 1439 1437 1435 1434 1432 1429 1427 1425 1422 1419 1416 1413 1409 1406 1402 1398 1395 1391 1387 1384 1381 1377 1373 1370 1367 1364 1362 1359 1357 1355 1352 1350 1349 1348 1347 1347 1347 1347 1347 1348 1349 1350 1351 1353 1354 1356 1358 1360 1362 1364 1367 1370
1449 1449 1450 1450 1450 1450 1450 1450 1450 1451 1451 1452 1452 1452 1452 1451 1451 1451 1451 1450 1449 1449 1448 1447 1446 1445 1444 1444 1443 1441 1440 1440 1439 1438 1437 1435 1434 1432 1430 1428 1425 1423 1420 1417 1415 1412 1408 1405 1401 1397 1394 1390 1387 1384 1381 1377 1374 1371 1368 1366 1364 1361 1359 1357 1355 1354 1353 1352 1352 1351 1351 1351 1352 1353 1354 1356 1357 1358 1360 1362 1364 1366 1368 1371 1374
1450 1450 1450 1450 1450 1450 1450 1450 1450 1451 1451 1451 1452 1452 1451 1451 1451 1450 1450 1449 1449 1448 1447 1446 1446 1445 1444 1443 1442 1441 1440 1439 1438 1437 1436 1435 1434 1432 1430 1428 1426 1424 1422 1419 1416 1414 1411 1407 1404 1400 1397 1393 1390 1388 1384 1381 1378 1375 1373 1370 1368 1366 1364 1362 1360 1359 1358 1357 1357 1357 1356 1356 1357 1358 1359 1361 1362 1363 1365 1367 1369 1371 1373 1375 1378